Terminal Aerodrome Forecast
Issued by NWS Salt Lake City, UT

Home | Current Version | Previous Version | Text Only | Print | Product List | Glossary On
Versions: 1 2 3 4 5 6 7 8 9 10 11 12 13 14 15 16 17 18 19 20 21 22 23 24 25 26 27 28 29 30 31 32 33 34 35 36 37 38 39 40 41 42 43 44 45 46 47 48 49 50
000
FTUS45 KSLC 202328
TAFSLC
TAF
KSLC 202328Z 2100/2206 33016G26KT P6SM VCSH SCT080 BKN120
      TEMPO 2100/2102 -SHRA SCT060 BKN100
     FM210500 32011KT P6SM SCT080 SCT100
     FM211800 33010G18KT P6SM SCT090=

USA.gov is the U.S. government's official web portal to all federal, state and local government web resources and services.